| time (UTC) | temp C | wind direction | speed KPH | gust KPH | rain 1hr cm | rain 24hr cm | rain mn cm | humidity % | barometer mb |
| 20260906094100 | 21 | 296 | 0.0 | 0.0 | 0.00 | 0.00 | 0.00 | 99 | 1011.5 |
| 20260906093556 | 21 | 291 | 0.0 | 0.0 | 0.00 | 0.00 | 0.00 | 99 | 1011.4 |
| 20260906093051 | 21 | 289 | 0.0 | 0.0 | 0.00 | 0.00 | 0.00 | 99 | 1011.4 |
| 20260906092546 | 21 | 289 | 0.0 | 0.0 | 0.00 | 0.00 | 0.00 | 99 | 1010.9 |
| 20260906092041 | 21 | 289 | 0.0 | 0.0 | 0.00 | 0.00 | 0.00 | 99 | 1011.1 |
| 20260906091537 | 21 | 288 | 0.0 | 0.0 | 0.00 | 0.00 | 0.00 | 99 | 1010.9 |
| 20260906091034 | 21 | 288 | 0.0 | 0.0 | 0.00 | 0.00 | 0.00 | 99 | 1011.0 |
| 20260906090533 | 21 | 288 | 0.0 | 0.0 | 0.00 | 0.00 | 0.00 | 99 | 1010.8 |
| 20260906090028 | 21 | 288 | 0.0 | 0.0 | 0.00 | 0.00 | 0.00 | 99 | 1011.2 |
| 20260906085527 | 21 | 288 | 0.0 | 0.0 | 0.00 | 0.00 | 0.00 | 99 | 1011.0 |
| 20260906085027 | 21 | 283 | 0.0 | 0.0 | 0.00 | 0.00 | 0.00 | 99 | 1010.9 |
| 20260906084522 | 21 | 301 | 0.0 | 0.0 | 0.00 | 0.00 | 0.00 | 99 | 1011.3 |
| 20260906084021 | 21 | 302 | 0.0 | 0.0 | 0.00 | 0.00 | 0.00 | 99 | 1011.1 |
| 20260906083517 | 21 | 303 | 0.0 | 0.0 | 0.00 | 0.00 | 0.00 | 99 | 1011.2 |
| 20260906083016 | 21 | 265 | 0.0 | 0.0 | 0.00 | 0.00 | 0.00 | 99 | 1010.9 |
| 20260906082511 | 21 | 200 | 0.0 | 0.0 | 0.00 | 0.00 | 0.00 | 99 | 1011.0 |
| 20260906082007 | 21 | 256 | 0.0 | 0.0 | 0.00 | 0.00 | 0.00 | 99 | 1011.0 |
| 20260906081503 | 21 | 312 | 0.0 | 0.0 | 0.00 | 0.00 | 0.00 | 99 | 1011.1 |
| 20260906080958 | 21 | 323 | 0.0 | 0.0 | 0.00 | 0.00 | 0.00 | 99 | 1010.7 |
| 20260906080455 | 21 | 332 | 0.0 | 0.0 | 0.00 | 0.00 | 0.00 | 99 | 1010.5 |
| 20260906075955 | 21 | 328 | 0.0 | 0.0 | 0.00 | 0.00 | 0.00 | 99 | 1010.9 |
| 20260906075449 | 21 | 331 | 0.0 | 0.0 | 0.00 | 0.00 | 0.00 | 99 | 1010.9 |
| 20260906074944 | 21 | 330 | 0.0 | 0.0 | 0.00 | 0.00 | 0.00 | 99 | 1010.8 |
| 20260906074439 | 21 | 330 | 0.0 | 0.0 | 0.00 | 0.00 | 0.00 | 99 | 1010.8 |
| 20260906073938 | 21 | 330 | 0.0 | 0.0 | 0.00 | 0.00 | 0.00 | 99 | 1010.8 |
| 20260906073433 | 21 | 330 | 0.0 | 0.0 | 0.00 | 0.00 | 0.00 | 99 | 1010.8 |
| 20260906072929 | 21 | 330 | 0.0 | 0.0 | 0.00 | 0.00 | 0.00 | 99 | 1010.8 |
| 20260906072424 | 21 | 330 | 0.0 | 0.0 | 0.00 | 0.00 | 0.00 | 99 | 1010.7 |
| 20260906071919 | 21 | 331 | 0.0 | 0.0 | 0.00 | 0.00 | 0.00 | 99 | 1011.0 |
| 20260906071415 | 21 | 330 | 0.0 | 0.0 | 0.00 | 0.00 | 0.00 | 99 | 1011.0 |
| 20260906070911 | 21 | 317 | 0.0 | 0.0 | 0.00 | 0.00 | 0.00 | 99 | 1010.9 |
| 20260906070402 | 21 | 317 | 0.0 | 0.0 | 0.00 | 0.00 | 0.00 | 99 | 1010.8 |
| 20260906065856 | 21 | 319 | 0.0 | 0.0 | 0.00 | 0.00 | 0.00 | 99 | 1010.9 |
| 20260906065350 | 21 | 293 | 0.0 | 0.0 | 0.00 | 0.00 | 0.00 | 99 | 1011.0 |
| 20260906064846 | 21 | 291 | 0.0 | 0.0 | 0.00 | 0.00 | 0.00 | 99 | 1011.1 |
| 20260906064343 | 21 | 324 | 0.0 | 0.0 | 0.00 | 0.00 | 0.00 | 99 | 1010.9 |
| 20260906063836 | 21 | 324 | 0.0 | 0.0 | 0.00 | 0.00 | 0.00 | 99 | 1011.0 |
| 20260906063332 | 21 | 327 | 0.0 | 0.0 | 0.00 | 0.00 | 0.00 | 99 | 1011.2 |
| 20260906062827 | 21 | 335 | 0.0 | 0.0 | 0.00 | 0.00 | 0.00 | 99 | 1011.1 |
| 20260906062326 | 21 | 328 | 0.0 | 0.0 | 0.00 | 0.00 | 0.00 | 99 | 1011.1 |
| 20260906061822 | 21 | 327 | 0.0 | 0.0 | 0.00 | 0.00 | 0.00 | 99 | 1011.2 |
| 20260906061318 | 21 | 313 | 0.0 | 0.0 | 0.00 | 0.00 | 0.00 | 99 | 1011.2 |
| 20260906060812 | 21 | 307 | 0.0 | 0.0 | 0.00 | 0.00 | 0.00 | 99 | 1011.3 |
| 20260906060310 | 21 | 330 | 0.0 | 0.0 | 0.00 | 0.00 | 0.00 | 99 | 1011.3 |
| 20260906055806 | 21 | 325 | 0.0 | 0.0 | 0.00 | 0.00 | 0.00 | 99 | 1011.2 |
| 20260906055301 | 21 | 324 | 0.0 | 0.0 | 0.00 | 0.00 | 0.00 | 99 | 1011.4 |
| 20260906054756 | 21 | 325 | 0.0 | 0.0 | 0.00 | 0.00 | 0.00 | 99 | 1011.5 |
| 20260906054251 | 21 | 310 | 0.0 | 0.0 | 0.00 | 0.00 | 0.00 | 99 | 1011.5 |
| 20260906053748 | 21 | 320 | 0.0 | 0.0 | 0.00 | 0.00 | 0.00 | 99 | 1011.8 |
| 20260906053243 | 21 | 337 | 0.0 | 0.0 | 0.00 | 0.00 | 0.00 | 99 | 1011.7 |
| 20260906052738 | 21 | 330 | 0.0 | 0.0 | 0.00 | 0.00 | 0.00 | 99 | 1011.8 |
| 20260906052235 | 21 | 310 | 0.0 | 0.0 | 0.00 | 0.00 | 0.00 | 99 | 1011.6 |
| 20260906051731 | 21 | 324 | 0.0 | 0.0 | 0.00 | 0.00 | 0.00 | 99 | 1011.8 |
| 20260906051231 | 21 | 319 | 0.0 | 0.0 | 0.00 | 0.00 | 0.00 | 99 | 1011.7 |
| 20260906050726 | 21 | 338 | 0.0 | 0.0 | 0.00 | 0.00 | 0.00 | 99 | 1012.0 |
| 20260906050221 | 21 | 336 | 0.0 | 0.0 | 0.00 | 0.00 | 0.00 | 99 | 1011.9 |
| 20260906045720 | 21 | 323 | 0.0 | 0.0 | 0.00 | 0.00 | 0.00 | 99 | 1012.0 |
| 20260906045215 | 21 | 348 | 0.0 | 0.0 | 0.00 | 0.00 | 0.00 | 99 | 1012.2 |
| 20260906044711 | 21 | 353 | 0.0 | 0.0 | 0.00 | 0.00 | 0.00 | 99 | 1012.0 |
| 20260906044206 | 21 | 319 | 0.0 | 0.0 | 0.00 | 0.00 | 0.00 | 99 | 1012.0 |
| 20260906043702 | 21 | 320 | 0.0 | 0.0 | 0.00 | 0.00 | 0.00 | 99 | 1011.8 |
| 20260906043157 | 21 | 320 | 0.0 | 0.0 | 0.00 | 0.00 | 0.00 | 99 | 1011.7 |
| 20260906042657 | 21 | 332 | 0.0 | 0.0 | 0.00 | 0.00 | 0.00 | 99 | 1011.9 |
| 20260906042151 | 21 | 330 | 0.0 | 0.0 | 0.00 | 0.00 | 0.00 | 99 | 1011.8 |
| 20260906041647 | 21 | 332 | 0.0 | 0.0 | 0.00 | 0.00 | 0.00 | 99 | 1011.9 |
| 20260906041142 | 21 | 332 | 0.0 | 0.0 | 0.00 | 0.00 | 0.00 | 99 | 1011.9 |
| 20260906040637 | 21 | 332 | 0.0 | 0.0 | 0.00 | 0.00 | 0.00 | 99 | 1011.9 |
| 20260906040133 | 21 | 332 | 0.0 | 0.0 | 0.00 | 0.00 | 0.00 | 99 | 1012.0 |
| 20260906035628 | 21 | 332 | 0.0 | 0.0 | 0.00 | 2.21 | 2.21 | 99 | 1012.0 |
| 20260906035123 | 21 | 332 | 0.0 | 0.0 | 0.00 | 2.21 | 2.21 | 99 | 1011.9 |
| 20260906034618 | 21 | 345 | 0.0 | 0.0 | 0.00 | 2.21 | 2.21 | 99 | 1012.0 |
| 20260906034112 | 21 | 346 | 0.0 | 0.0 | 0.00 | 2.21 | 2.21 | 99 | 1011.9 |
| 20260906033608 | 21 | 346 | 0.0 | 0.0 | 0.00 | 2.21 | 2.21 | 99 | 1012.1 |
| 20260906033102 | 21 | 20 | 0.0 | 0.0 | 0.00 | 2.21 | 2.21 | 99 | 1012.1 |
| 20260906032559 | 21 | 331 | 0.0 | 0.0 | 0.00 | 2.21 | 2.21 | 99 | 1012.0 |
| 20260906032053 | 21 | 331 | 0.0 | 0.0 | 0.00 | 2.21 | 2.21 | 99 | 1012.3 |
| 20260906031549 | 21 | 331 | 0.0 | 0.0 | 0.00 | 2.21 | 2.21 | 99 | 1012.7 |
| 20260906031045 | 21 | 331 | 0.0 | 0.0 | 0.00 | 2.21 | 2.21 | 99 | 1012.3 |
| 20260906030544 | 21 | 313 | 0.0 | 0.0 | 0.00 | 2.21 | 2.21 | 99 | 1012.4 |
| 20260906030043 | 21 | 344 | 0.0 | 0.0 | 0.00 | 2.21 | 2.21 | 99 | 1012.6 |
| 20260906025538 | 21 | 5 | 0.0 | 0.0 | 0.00 | 2.21 | 2.21 | 99 | 1012.6 |
| 20260906025036 | 21 | 332 | 0.0 | 0.0 | 0.00 | 2.21 | 2.21 | 99 | 1012.9 |
| 20260906024531 | 21 | 12 | 0.0 | 0.0 | 0.00 | 2.21 | 2.21 | 99 | 1012.8 |
| 20260906024025 | 21 | 343 | 0.0 | 0.0 | 0.00 | 2.21 | 2.21 | 99 | 1012.9 |
| 20260906023522 | 21 | 346 | 0.0 | 0.0 | 0.00 | 2.21 | 2.21 | 99 | 1012.9 |
| 20260906023016 | 21 | 341 | 0.0 | 0.0 | 0.00 | 2.21 | 2.21 | 99 | 1013.0 |
| 20260906022511 | 21 | 323 | 0.0 | 0.0 | 0.00 | 2.21 | 2.21 | 99 | 1013.1 |
| 20260906022007 | 22 | 330 | 1.6 | 1.6 | 0.00 | 2.21 | 2.21 | 99 | 1013.1 |
| 20260906021502 | 22 | 341 | 0.0 | 0.0 | 0.00 | 2.21 | 2.21 | 99 | 1013.1 |
| 20260906020956 | 22 | 274 | 0.0 | 0.0 | 0.00 | 2.21 | 2.21 | 99 | 1012.8 |
| 20260906020451 | 22 | 320 | 0.0 | 0.0 | 0.00 | 2.21 | 2.21 | 99 | 1012.7 |
| 20260906015950 | 22 | 357 | 0.0 | 0.0 | 0.00 | 2.21 | 2.21 | 99 | 1012.6 |
| 20260906015449 | 22 | 332 | 0.0 | 0.0 | 0.00 | 2.21 | 2.21 | 99 | 1012.4 |
| 20260906014949 | 22 | 338 | 0.0 | 0.0 | 0.00 | 2.21 | 2.21 | 99 | 1012.3 |
| 20260906014449 | 22 | 318 | 0.0 | 0.0 | 0.00 | 2.21 | 2.21 | 99 | 1012.3 |
| 20260906013945 | 22 | 326 | 0.0 | 0.0 | 0.00 | 2.21 | 2.21 | 99 | 1011.9 |
| 20260906013440 | 22 | 300 | 0.0 | 0.0 | 0.00 | 2.21 | 2.21 | 99 | 1011.7 |
| 20260906012936 | 22 | 276 | 0.0 | 0.0 | 0.00 | 2.21 | 2.21 | 99 | 1011.8 |
| 20260906012431 | 22 | 331 | 0.0 | 0.0 | 0.00 | 2.21 | 2.21 | 99 | 1011.7 |
| 20260906011930 | 22 | 269 | 0.0 | 0.0 | 0.00 | 2.21 | 2.21 | 99 | 1011.7 |
| 20260906011426 | 22 | 191 | 4.8 | 4.8 | 0.00 | 2.21 | 2.21 | 99 | 1011.4 |
| 20260906010921 | 22 | 356 | 0.0 | 0.0 | 0.00 | 2.21 | 2.21 | 99 | 1011.1 |
| 20260906010416 | 22 | 356 | 0.0 | 0.0 | 0.00 | 2.21 | 2.21 | 99 | 1011.1 |
| 20260906005912 | 22 | 339 | 0.0 | 0.0 | 0.00 | 2.21 | 2.21 | 99 | 1011.1 |
| 20260906005412 | 22 | 13 | 0.0 | 0.0 | 0.00 | 2.21 | 2.21 | 99 | 1011.2 |
| 20260906004910 | 22 | 355 | 0.0 | 0.0 | 0.00 | 2.21 | 2.21 | 99 | 1011.1 |
| 20260906004404 | 22 | 301 | 0.0 | 0.0 | 0.00 | 2.21 | 2.21 | 99 | 1011.2 |
| 20260906003854 | 22 | 299 | 0.0 | 0.0 | 0.00 | 2.21 | 2.21 | 99 | 1011.1 |
| 20260906003349 | 22 | 333 | 0.0 | 0.0 | 0.00 | 2.21 | 2.21 | 99 | 1011.0 |
| 20260906002845 | 22 | 341 | 0.0 | 0.0 | 0.00 | 2.21 | 2.21 | 99 | 1010.8 |
| 20260906002344 | 22 | 329 | 0.0 | 0.0 | 0.00 | 2.21 | 2.21 | 99 | 1010.9 |
| 20260906001840 | 22 | 262 | 0.0 | 0.0 | 0.00 | 2.21 | 2.21 | 99 | 1011.1 |
| 20260906001335 | 22 | 342 | 0.0 | 0.0 | 0.00 | 2.21 | 2.21 | 99 | 1011.3 |
| 20260906000830 | 22 | 3 | 0.0 | 0.0 | 0.00 | 2.21 | 2.21 | 99 | 1011.3 |
| 20260906000326 | 22 | 269 | 0.0 | 0.0 | 0.00 | 2.21 | 2.21 | 99 | 1011.3 |
| 20260905235825 | 22 | 289 | 0.0 | 0.0 | 0.00 | 2.21 | 2.21 | 99 | 1011.5 |
| 20260905235320 | 22 | 269 | 0.0 | 0.0 | 0.00 | 2.21 | 2.21 | 99 | 1011.4 |
| 20260905234816 | 22 | 294 | 0.0 | 0.0 | 0.00 | 2.21 | 2.21 | 99 | 1011.6 |
| 20260905234311 | 22 | 317 | 0.0 | 0.0 | 0.00 | 2.21 | 2.21 | 99 | 1011.7 |
| 20260905233805 | 22 | 350 | 0.0 | 0.0 | 0.00 | 2.21 | 2.21 | 99 | 1012.1 |
| 20260905233300 | 22 | 298 | 0.0 | 0.0 | 0.00 | 2.21 | 2.21 | 99 | 1012.0 |
| 20260905232759 | 22 | 205 | 1.6 | 1.6 | 0.00 | 2.21 | 2.21 | 99 | 1012.0 |
| 20260905232255 | 22 | 211 | 3.2 | 3.2 | 0.00 | 2.21 | 2.21 | 99 | 1011.7 |
| 20260905231751 | 21 | 336 | 1.6 | 1.6 | 0.00 | 2.21 | 2.21 | 99 | 1012.0 |
| 20260905231246 | 21 | 252 | 1.6 | 1.6 | 0.00 | 2.21 | 2.21 | 99 | 1012.0 |
| 20260905230743 | 21 | 287 | 0.0 | 0.0 | 0.00 | 2.21 | 2.21 | 99 | 1011.9 |
| 20260905230240 | 21 | 161 | 1.6 | 1.6 | 0.00 | 2.21 | 2.21 | 99 | 1011.6 |
| 20260905225740 | 21 | 284 | 0.0 | 0.0 | 0.00 | 2.21 | 2.21 | 98 | 1011.7 |
| 20260905225235 | 21 | 250 | 3.2 | 3.2 | 0.18 | 2.21 | 2.21 | 98 | 1011.5 |
| 20260905224734 | 22 | 247 | 3.2 | 3.2 | 0.48 | 2.21 | 2.21 | 98 | 1011.8 |
| 20260905224230 | 22 | 309 | 0.0 | 0.0 | 2.16 | 2.18 | 2.18 | 98 | 1011.9 |
| 20260905223726 | 22 | 191 | 0.0 | 0.0 | 4.75 | 2.13 | 2.13 | 97 | 1012.0 |
| 20260905223223 | 22 | 339 | 0.0 | 0.0 | 5.59 | 1.88 | 1.88 | 96 | 1012.2 |
| 20260905222718 | 22 | 350 | 8.0 | 9.7 | 6.25 | 1.42 | 1.42 | 95 | 1012.9 |
| 20260905222217 | 23 | 330 | 8.0 | 12.9 | 4.75 | 0.94 | 0.94 | 93 | 1013.0 |
| 20260905221713 | 24 | 338 | 4.8 | 9.7 | 1.98 | 0.38 | 0.38 | 90 | 1012.1 |
| 20260905221210 | 25 | 288 | 3.2 | 4.8 | 0.89 | 0.15 | 0.15 | 86 | 1011.6 |
| 20260905220705 | 30 | 347 | 9.7 | 14.5 | 0.13 | 0.03 | 0.03 | 72 | 1010.9 |
| 20260905220201 | 32 | 358 | 19.3 | 29.0 | 0.00 | 0.00 | 0.00 | 61 | 1011.3 |
| 20260905215700 | 35 | 343 | 6.4 | 8.0 | 0.00 | 0.00 | 0.00 | 53 | 1010.8 |
| 20260905215156 | 35 | 315 | 0.0 | 0.0 | 0.00 | 0.00 | 0.00 | 52 | 1010.2 |
| 20260905214652 | 36 | 179 | 1.6 | 1.6 | 0.00 | 0.00 | 0.00 | 51 | 1010.2 |
| 20260905214147 | 36 | 274 | 0.0 | 0.0 | 0.00 | 0.00 | 0.00 | 50 | 1010.2 |
| 20260905213642 | 36 | 353 | 0.0 | 0.0 | 0.00 | 0.00 | 0.00 | 50 | 1010.1 |
| 20260905213138 | 36 | 263 | 0.0 | 1.6 | 0.00 | 0.00 | 0.00 | 52 | 1009.8 |
| 20260905212633 | 36 | 210 | 1.6 | 1.6 | 0.00 | 0.00 | 0.00 | 50 | 1009.7 |
| 20260905212132 | 36 | 198 | 3.2 | 3.2 | 0.00 | 0.00 | 0.00 | 51 | 1009.6 |
| 20260905211627 | 36 | 160 | 6.4 | 9.7 | 0.00 | 0.00 | 0.00 | 50 | 1009.8 |
| 20260905211123 | 36 | 172 | 3.2 | 3.2 | 0.00 | 0.00 | 0.00 | 50 | 1009.9 |
| 20260905210620 | 36 | 187 | 3.2 | 3.2 | 0.00 | 0.00 | 0.00 | 49 | 1009.7 |
| 20260905210114 | 37 | 133 | 6.4 | 8.0 | 0.00 | 0.00 | 0.00 | 49 | 1010.1 |
| 20260905205612 | 37 | 75 | 4.8 | 8.0 | 0.00 | 0.00 | 0.00 | 48 | 1009.8 |
| 20260905205107 | 37 | 112 | 4.8 | 8.0 | 0.00 | 0.00 | 0.00 | 47 | 1009.6 |
| 20260905204606 | 37 | 151 | 9.7 | 11.3 | 0.00 | 0.00 | 0.00 | 48 | 1009.6 |
| 20260905204101 | 37 | 75 | 4.8 | 4.8 | 0.00 | 0.00 | 0.00 | 48 | 1009.8 |
| 20260905203556 | 37 | 200 | 3.2 | 3.2 | 0.00 | 0.00 | 0.00 | 48 | 1009.9 |
| 20260905203051 | 37 | 147 | 4.8 | 4.8 | 0.00 | 0.00 | 0.00 | 47 | 1009.9 |
| 20260905202546 | 38 | 119 | 6.4 | 8.0 | 0.00 | 0.00 | 0.00 | 46 | 1009.8 |
| 20260905202042 | 38 | 106 | 6.4 | 8.0 | 0.00 | 0.00 | 0.00 | 45 | 1010.0 |
| 20260905201537 | 37 | 205 | 4.8 | 4.8 | 0.00 | 0.00 | 0.00 | 47 | 1009.9 |
| 20260905201037 | 37 | 178 | 3.2 | 4.8 | 0.00 | 0.00 | 0.00 | 46 | 1010.0 |
| 20260905200532 | 38 | 145 | 4.8 | 8.0 | 0.00 | 0.00 | 0.00 | 47 | 1010.1 |
| 20260905200032 | 37 | 272 | 3.2 | 3.2 | 0.00 | 0.00 | 0.00 | 48 | 1010.1 |
| 20260905195526 | 37 | 255 | 0.0 | 0.0 | 0.00 | 0.00 | 0.00 | 49 | 1010.2 |
| 20260905195021 | 37 | 181 | 6.4 | 9.7 | 0.00 | 0.00 | 0.00 | 46 | 1010.2 |
| 20260905194515 | 37 | 226 | 3.2 | 3.2 | 0.00 | 0.00 | 0.00 | 47 | 1010.2 |
| 20260905194010 | 37 | 250 | 0.0 | 1.6 | 0.00 | 0.00 | 0.00 | 49 | 1010.4 |
| 20260905193510 | 37 | 188 | 4.8 | 4.8 | 0.00 | 0.00 | 0.00 | 48 | 1010.4 |
| 20260905193005 | 37 | 167 | 4.8 | 4.8 | 0.00 | 0.00 | 0.00 | 48 | 1010.5 |
| 20260905192500 | 37 | 193 | 6.4 | 9.7 | 0.00 | 0.00 | 0.00 | 49 | 1010.5 |
| 20260905191956 | 37 | 193 | 8.0 | 11.3 | 0.00 | 0.00 | 0.00 | 49 | 1010.7 |
| 20260905191450 | 37 | 165 | 9.7 | 11.3 | 0.00 | 0.00 | 0.00 | 50 | 1010.6 |
| 20260905190949 | 37 | 180 | 3.2 | 4.8 | 0.00 | 0.00 | 0.00 | 50 | 1010.8 |
| 20260905190447 | 36 | 208 | 4.8 | 4.8 | 0.00 | 0.00 | 0.00 | 50 | 1010.6 |
| 20260905185946 | 36 | 235 | 3.2 | 3.2 | 0.00 | 0.00 | 0.00 | 51 | 1010.9 |
| 20260905185441 | 36 | 148 | 1.6 | 3.2 | 0.00 | 0.00 | 0.00 | 51 | 1010.9 |
| 20260905184940 | 37 | 115 | 4.8 | 8.0 | 0.00 | 0.00 | 0.00 | 50 | 1010.9 |
| 20260905184440 | 37 | 207 | 4.8 | 4.8 | 0.00 | 0.00 | 0.00 | 51 | 1011.1 |
| 20260905183938 | 37 | 210 | 6.4 | 8.0 | 0.00 | 0.00 | 0.00 | 50 | 1011.3 |
| 20260905183433 | 36 | 330 | 3.2 | 3.2 | 0.00 | 0.00 | 0.00 | 52 | 1011.6 |
| 20260905182928 | 36 | 348 | 1.6 | 1.6 | 0.00 | 0.00 | 0.00 | 52 | 1011.5 |
| 20260905182427 | 37 | 87 | 4.8 | 4.8 | 0.00 | 0.00 | 0.00 | 52 | 1011.5 |
| 20260905181923 | 36 | 265 | 3.2 | 3.2 | 0.00 | 0.00 | 0.00 | 53 | 1011.3 |
| 20260905181418 | 37 | 158 | 4.8 | 4.8 | 0.00 | 0.00 | 0.00 | 52 | 1011.5 |
| 20260905180917 | 36 | 256 | 3.2 | 3.2 | 0.00 | 0.00 | 0.00 | 53 | 1011.8 |
| 20260905180412 | 36 | 249 | 0.0 | 0.0 | 0.00 | 0.00 | 0.00 | 54 | 1011.7 |
| 20260905175912 | 36 | 313 | 1.6 | 1.6 | 0.00 | 0.00 | 0.00 | 56 | 1011.9 |
| 20260905175412 | 35 | 282 | 3.2 | 3.2 | 0.00 | 0.00 | 0.00 | 58 | 1012.3 |
| 20260905174907 | 35 | 333 | 3.2 | 3.2 | 0.00 | 0.00 | 0.00 | 59 | 1012.3 |
| 20260905174403 | 35 | 332 | 1.6 | 1.6 | 0.00 | 0.00 | 0.00 | 58 | 1012.3 |
| 20260905173859 | 35 | 340 | 3.2 | 3.2 | 0.00 | 0.00 | 0.00 | 58 | 1012.4 |
| 20260905173355 | 35 | 352 | 1.6 | 1.6 | 0.00 | 0.00 | 0.00 | 58 | 1012.3 |
| 20260905172850 | 34 | 281 | 1.6 | 1.6 | 0.00 | 0.00 | 0.00 | 60 | 1012.6 |
| 20260905172347 | 35 | 327 | 1.6 | 1.6 | 0.00 | 0.00 | 0.00 | 59 | 1012.2 |
| 20260905171844 | 35 | 344 | 1.6 | 3.2 | 0.00 | 0.00 | 0.00 | 57 | 1012.6 |
| 20260905171340 | 35 | 228 | 4.8 | 4.8 | 0.00 | 0.00 | 0.00 | 56 | 1012.6 |
| 20260905170836 | 35 | 24 | 1.6 | 1.6 | 0.00 | 0.00 | 0.00 | 60 | 1012.6 |
| 20260905170333 | 34 | 271 | 0.0 | 1.6 | 0.00 | 0.00 | 0.00 | 60 | 1012.9 |
| 20260905165831 | 35 | 138 | 6.4 | 8.0 | 0.00 | 0.00 | 0.00 | 59 | 1012.8 |
| 20260905165327 | 35 | 154 | 4.8 | 4.8 | 0.00 | 0.00 | 0.00 | 59 | 1012.8 |
| 20260905164827 | 35 | 152 | 8.0 | 9.7 | 0.00 | 0.00 | 0.00 | 59 | 1012.9 |
| 20260905164322 | 35 | 194 | 8.0 | 12.9 | 0.00 | 0.00 | 0.00 | 58 | 1013.1 |
| 20260905163817 | 34 | 334 | 3.2 | 3.2 | 0.00 | 0.00 | 0.00 | 61 | 1013.1 |
| 20260905163314 | 34 | 209 | 1.6 | 1.6 | 0.00 | 0.00 | 0.00 | 61 | 1013.6 |
| 20260905162809 | 35 | 147 | 4.8 | 8.0 | 0.00 | 0.00 | 0.00 | 59 | 1013.4 |
| 20260905162309 | 35 | 185 | 1.6 | 3.2 | 0.00 | 0.00 | 0.00 | 61 | 1013.5 |
| 20260905161803 | 34 | 63 | 0.0 | 1.6 | 0.00 | 0.00 | 0.00 | 61 | 1013.5 |
| 20260905161302 | 34 | 131 | 1.6 | 4.8 | 0.00 | 0.00 | 0.00 | 61 | 1013.6 |
| 20260905160755 | 33 | 98 | 3.2 | 3.2 | 0.00 | 0.00 | 0.00 | 63 | 1013.7 |
| 20260905160249 | 33 | 16 | 1.6 | 3.2 | 0.00 | 0.00 | 0.00 | 64 | 1013.8 |
| 20260905155744 | 33 | 64 | 1.6 | 1.6 | 0.00 | 0.00 | 0.00 | 63 | 1013.8 |
| 20260905155243 | 33 | 203 | 1.6 | 1.6 | 0.00 | 0.00 | 0.00 | 65 | 1013.9 |
| 20260905154737 | 33 | 344 | 1.6 | 4.8 | 0.00 | 0.00 | 0.00 | 67 | 1013.9 |
| 20260905154234 | 33 | 11 | 4.8 | 8.0 | 0.00 | 0.00 | 0.00 | 65 | 1013.9 |
| 20260905153729 | 33 | 60 | 1.6 | 1.6 | 0.00 | 0.00 | 0.00 | 68 | 1014.2 |
| 20260905153224 | 33 | 167 | 3.2 | 3.2 | 0.00 | 0.00 | 0.00 | 67 | 1014.3 |
| 20260905152719 | 32 | 237 | 1.6 | 3.2 | 0.00 | 0.00 | 0.00 | 69 | 1014.0 |
| 20260905152219 | 32 | 325 | 4.8 | 4.8 | 0.00 | 0.00 | 0.00 | 68 | 1014.1 |
| 20260905151713 | 32 | 168 | 3.2 | 3.2 | 0.00 | 0.00 | 0.00 | 69 | 1014.2 |
| 20260905151210 | 32 | 298 | 4.8 | 4.8 | 0.00 | 0.00 | 0.00 | 69 | 1014.2 |
| 20260905150704 | 32 | 273 | 0.0 | 0.0 | 0.00 | 0.00 | 0.00 | 71 | 1014.2 |
| 20260905150203 | 31 | 11 | 1.6 | 1.6 | 0.00 | 0.00 | 0.00 | 73 | 1014.4 |
| 20260905145701 | 32 | 133 | 1.6 | 1.6 | 0.00 | 0.00 | 0.00 | 71 | 1014.5 |
| 20260905145201 | 31 | 5 | 1.6 | 3.2 | 0.00 | 0.00 | 0.00 | 73 | 1014.2 |
| 20260905144654 | 31 | 119 | 1.6 | 3.2 | 0.00 | 0.00 | 0.00 | 74 | 1014.5 |
| 20260905144149 | 30 | 313 | 6.4 | 8.0 | 0.00 | 0.00 | 0.00 | 75 | 1014.5 |
| 20260905143648 | 30 | 167 | 1.6 | 1.6 | 0.00 | 0.00 | 0.00 | 75 | 1014.5 |
| 20260905143143 | 30 | 325 | 6.4 | 8.0 | 0.00 | 0.00 | 0.00 | 77 | 1014.5 |
| 20260905142642 | 30 | 307 | 3.2 | 4.8 | 0.00 | 0.00 | 0.00 | 79 | 1014.5 |
| 20260905142137 | 29 | 331 | 1.6 | 1.6 | 0.00 | 0.00 | 0.00 | 80 | 1014.9 |
| 20260905141637 | 28 | 329 | 1.6 | 3.2 | 0.00 | 0.00 | 0.00 | 83 | 1014.7 |
| 20260905141133 | 28 | 53 | 0.0 | 0.0 | 0.00 | 0.00 | 0.00 | 83 | 1014.6 |
| 20260905140628 | 28 | 23 | 4.8 | 4.8 | 0.00 | 0.00 | 0.00 | 84 | 1014.6 |
| 20260905140127 | 28 | 205 | 3.2 | 3.2 | 0.00 | 0.00 | 0.00 | 85 | 1014.6 |
| 20260905135622 | 28 | 10 | 0.0 | 1.6 | 0.00 | 0.00 | 0.00 | 86 | 1014.8 |
| 20260905135118 | 27 | 302 | 4.8 | 4.8 | 0.00 | 0.00 | 0.00 | 87 | 1014.8 |
| 20260905134613 | 27 | 313 | 3.2 | 3.2 | 0.00 | 0.00 | 0.00 | 89 | 1014.8 |
| 20260905134111 | 27 | 12 | 0.0 | 0.0 | 0.00 | 0.00 | 0.00 | 90 | 1015.0 |
| 20260905133607 | 27 | 287 | 3.2 | 3.2 | 0.00 | 0.00 | 0.00 | 91 | 1014.9 |
| 20260905133106 | 26 | 147 | 4.8 | 4.8 | 0.00 | 0.00 | 0.00 | 93 | 1014.9 |
| 20260905132606 | 26 | 271 | 1.6 | 1.6 | 0.00 | 0.00 | 0.00 | 94 | 1014.7 |
| 20260905132100 | 26 | 333 | 3.2 | 3.2 | 0.00 | 0.00 | 0.00 | 95 | 1014.8 |
| 20260905131556 | 25 | 311 | 1.6 | 1.6 | 0.00 | 0.00 | 0.00 | 97 | 1015.1 |
| 20260905131051 | 25 | 351 | 3.2 | 3.2 | 0.00 | 0.00 | 0.00 | 98 | 1015.0 |
| 20260905130550 | 25 | 139 | 4.8 | 4.8 | 0.00 | 0.00 | 0.00 | 99 | 1015.1 |
| 20260905130046 | 25 | 352 | 4.8 | 4.8 | 0.00 | 0.00 | 0.00 | 99 | 1015.0 |
| 20260905125545 | 24 | 312 | 3.2 | 3.2 | 0.00 | 0.00 | 0.00 | 99 | 1015.0 |
| 20260905125041 | 24 | 340 | 4.8 | 4.8 | 0.00 | 0.00 | 0.00 | 99 | 1014.8 |
| 20260905124537 | 24 | 344 | 1.6 | 1.6 | 0.00 | 0.00 | 0.00 | 99 | 1014.9 |
| 20260905124033 | 24 | 20 | 1.6 | 1.6 | 0.00 | 0.00 | 0.00 | 99 | 1014.8 |
| 20260905123523 | 23 | 19 | 1.6 | 1.6 | 0.00 | 0.00 | 0.00 | 99 | 1014.7 |
| 20260905123019 | 23 | 329 | 0.0 | 0.0 | 0.00 | 0.00 | 0.00 | 99 | 1014.8 |
| 20260905122514 | 23 | 332 | 0.0 | 0.0 | 0.00 | 0.00 | 0.00 | 99 | 1014.6 |
| 20260905122009 | 23 | 276 | 0.0 | 0.0 | 0.00 | 0.00 | 0.00 | 99 | 1014.4 |
| 20260905121503 | 23 | 292 | 0.0 | 0.0 | 0.00 | 0.00 | 0.00 | 99 | 1014.8 |
| 20260905121002 | 23 | 327 | 0.0 | 0.0 | 0.00 | 0.00 | 0.00 | 99 | 1014.6 |
| 20260905120456 | 23 | 327 | 0.0 | 0.0 | 0.00 | 0.00 | 0.00 | 99 | 1014.7 |
| 20260905115952 | 23 | 332 | 0.0 | 0.0 | 0.00 | 0.00 | 0.00 | 99 | 1014.9 |
| 20260905115451 | 23 | 87 | 0.0 | 0.0 | 0.00 | 0.00 | 0.00 | 99 | 1014.6 |
| 20260905114946 | 23 | 124 | 0.0 | 0.0 | 0.00 | 0.00 | 0.00 | 99 | 1014.5 |
| 20260905114446 | 23 | 124 | 0.0 | 0.0 | 0.00 | 0.00 | 0.00 | 99 | 1014.5 |
| 20260905113944 | 23 | 138 | 0.0 | 0.0 | 0.00 | 0.00 | 0.00 | 99 | 1014.4 |
| 20260905113440 | 23 | 138 | 0.0 | 0.0 | 0.00 | 0.00 | 0.00 | 99 | 1014.5 |
| 20260905112935 | 23 | 140 | 0.0 | 0.0 | 0.00 | 0.00 | 0.00 | 99 | 1014.4 |
| 20260905112431 | 23 | 142 | 0.0 | 0.0 | 0.00 | 0.00 | 0.00 | 99 | 1014.3 |
| 20260905111925 | 23 | 146 | 0.0 | 0.0 | 0.00 | 0.00 | 0.00 | 99 | 1014.3 |
| 20260905111420 | 23 | 146 | 0.0 | 0.0 | 0.00 | 0.00 | 0.00 | 99 | 1014.1 |
| 20260905110914 | 23 | 270 | 0.0 | 0.0 | 0.00 | 0.00 | 0.00 | 99 | 1014.3 |
| 20260905110408 | 23 | 150 | 0.0 | 0.0 | 0.00 | 0.00 | 0.00 | 99 | 1014.4 |
| 20260905105903 | 23 | 174 | 0.0 | 0.0 | 0.00 | 0.00 | 0.00 | 99 | 1014.4 |
| 20260905105402 | 23 | 174 | 0.0 | 0.0 | 0.00 | 0.00 | 0.00 | 99 | 1014.2 |
| 20260905104856 | 23 | 174 | 0.0 | 0.0 | 0.00 | 0.00 | 0.00 | 99 | 1014.1 |
| 20260905104353 | 23 | 174 | 0.0 | 0.0 | 0.00 | 0.00 | 0.00 | 99 | 1014.1 |
| 20260905103847 | 23 | 177 | 0.0 | 0.0 | 0.00 | 0.00 | 0.00 | 99 | 1014.0 |
| 20260905103343 | 23 | 176 | 0.0 | 0.0 | 0.00 | 0.00 | 0.00 | 99 | 1014.2 |
| 20260905102838 | 23 | 176 | 0.0 | 0.0 | 0.00 | 0.00 | 0.00 | 99 | 1013.9 |
| 20260905102334 | 23 | 176 | 0.0 | 0.0 | 0.00 | 0.00 | 0.00 | 99 | 1013.9 |
| 20260905101829 | 22 | 176 | 0.0 | 0.0 | 0.00 | 0.00 | 0.00 | 99 | 1014.1 |
| 20260905101327 | 22 | 176 | 0.0 | 0.0 | 0.00 | 0.00 | 0.00 | 99 | 1013.8 |
| 20260905100822 | 23 | 176 | 0.0 | 0.0 | 0.00 | 0.00 | 0.00 | 99 | 1013.8 |
| 20260905100317 | 23 | 176 | 0.0 | 0.0 | 0.00 | 0.00 | 0.00 | 99 | 1013.8 |
| 20260905095817 | 23 | 176 | 0.0 | 0.0 | 0.00 | 0.00 | 0.00 | 99 | 1013.6 |
| 20260905095311 | 23 | 176 | 0.0 | 0.0 | 0.00 | 0.00 | 0.00 | 99 | 1013.8 |
| 20260905094806 | 23 | 175 | 0.0 | 0.0 | 0.00 | 0.00 | 0.00 | 99 | 1013.7 |
| 20260905094302 | 23 | 172 | 0.0 | 0.0 | 0.00 | 0.00 | 0.00 | 99 | 1014.0 |